Tracking 29892 objects as of 21-Nov-2024
HD Live streaming from Space Station
objects crossing your sky now

STARLINK-31044

Track STARLINK-31044 now!
10-day predictions
STARLINK-31044 is classified as:


NORAD ID: 58589
Int'l Code: 2023-200A
Perigee: 565.1 km
Apogee: 567.3 km
Inclination: 43.0 °
Period: 95.8 minutes
Semi major axis: 6937 km
RCS: Unknown
Launch date: December 19, 2023
Source: United States (US)
Launch site: AIR FORCE EASTERN TEST RANGE (AFETR)
Your satellite tracking list
Your tracking list is empty




NASA's NSSDC Master Catalog

Two Line Element Set (TLE):
1 58589U 23200A   24325.93617376  .00000142  00000-0  25560-4 0  9999
2 58589  43.0056 224.1283 0001574 257.1533 102.9134 15.02537713 52359
Source of the keplerian elements: AFSPC